Skip Page Navigation
NASA JPL Caltech
NASA Logo - Jet Propulsion Laboratory + View the NASA Portal
+ Near-Earth Object (NEO) Program
Search JPL
JPL Home Earth Solar System Stars & Galaxies Technology
JPL Solar System Dynamics
BODIES ORBITS EPHEMERIDES TOOLS PHYSICAL DATA DISCOVERY FAQ SITE MAP
JPL Small-Body Database Browser
Search: [ help ]  
1945 Wesselink (1930 OL)
Classification: Main-belt Asteroid          SPK-ID: 2001945
Ephemeris | Orbit Diagram | Orbital Elements | Physical Parameters | Discovery Circumstances ]

[ show orbit diagram ]
Orbital Elements at Epoch 2457000.5 (2014-Dec-09.0) TDB
Reference: JPL 13 (heliocentric ecliptic J2000)
 Element Value Uncertainty (1-sigma)   Units 
e .1809984851715024 4.5969e-08  
a 2.553222267977837 1.1917e-08 AU
q 2.091092905167701 1.1668e-07 AU
i 4.225884236536823 4.8354e-06 deg
node 142.6315369757162 6.1503e-05 deg
peri 194.7926108987686 6.2647e-05 deg
M 214.585400472641 1.3835e-05 deg
tp 2457602.417365327666
(2016-Aug-01.91736533)
5.841e-05 JED
period 1490.154717767458
4.08
1.0433e-05
2.856e-08
d
yr
n .241585652622266 1.6914e-09 deg/d
Q 3.015351630787973 1.4074e-08 AU
  Orbit Determination Parameters
   # obs. used (total)      1581  
   data-arc span      30811 days (84.36 yr)  
   first obs. used      1930-07-22  
   last obs. used      2014-11-29  
   planetary ephem.      DE431  
   SB-pert. ephem.      SB431-BIG16  
   condition code      0  
   fit RMS      .51716  
   data source      ORB  
   producer      Otto Matic  
   solution date      2015-Jan-07 23:54:31  

Additional Information
 Earth MOID = 1.08257 AU 
 T_jup = 3.412 
[ show covariance matrix ]

Ephemeris | Orbit Diagram | Orbital Elements | Physical Parameters | Discovery Circumstances ]

Physical Parameter Table
Parameter Symbol Value Units Sigma Reference Notes
absolute magnitude H 12.7 mag n/a MPO253374  

1945 Wesselink (1930 OL)          Discovered 1930-Jul-22 by Van Gent, H. at Johannesburg (LS)
Reference: DISCOVERY.DBLast Updated: 2003-08-29

Alternate Designations
 1930 OL = 1934 NL = 1970 GA2 = 1974 HM3 
Ephemeris | Orbit Diagram | Orbital Elements | Physical Parameters | Discovery Circumstances ]
ABOUT SSD CREDITS/AWARDS PRIVACY/COPYRIGHT GLOSSARY LINKS
FirstGov 2015-Feb-01 16:41 UT
(server date/time)  
NASA Home Page
Site Manager:   Donald K. Yeomans
Webmaster  Alan B. Chamberlin